Location: Unspecified
(48.2082°N, 0.0000°E)
Time: 14:42:49
(UTC+00:00)

Transit 4A - Pass Details

Date: 22 June 2019
Orbit: 862 x 982 km, 66.8° (Epoch: 20 July)

Event Time Altitude Azimuth Distance (km) Brightness Sun altitude
Rises 08:59:41 0° 226° (SW) 3,621 10.8 46.4°
Reaches altitude 10° 09:02:15 10° 230° (SW) 2,693 10.2 46.8°
Maximum altitude 09:08:29 61° 310° (NW) 1,103 8.7 47.8°
Drops below altitude 10° 09:14:52 10° 31° (NNE) 2,746 10.6 48.8°
Sets 09:17:30 0° 35° (NE) 3,697 11.1 49.2°
